WA7ZVY-4 Weather Reports


time (UTC)temp
F
wind
direction
speed
knots
gust
knots
rain 1hr
in
rain 24hr
in
rain mn
in
humidity
%
barometer
mb
20260510223601 63 341 6.1 10.4 0.00 0.00 0.00 74 1020.1
20260510223433 63 341 7.0 10.4 0.00 0.00 0.00 74 1020.1
20260510223044 63 329 7.0 10.4 0.00 0.00 0.00 73 1020.1
20260510222926 63 329 7.8 10.4 0.00 0.00 0.00 72 1020.1
20260510222528 63 5 8.7 10.4 0.00 0.00 0.00 72 1020.2
20260510222419 63 317 7.0 10.4 0.00 0.00 0.00 72 1020.1
20260510222010 64 310 7.8 10.4 0.00 0.00 0.00 71 1020.3
20260510221912 64 282 7.0 10.4 0.00 0.00 0.00 71 1020.4
20260510221453 65 344 7.0 8.7 0.00 0.00 0.00 70 1020.3
20260510221405 65 344 7.8 8.7 0.00 0.00 0.00 70 1020.4
20260510220936 66 26 7.8 8.7 0.00 0.00 0.00 69 1020.3
20260510220857 67 26 7.0 8.7 0.00 0.00 0.00 69 1020.3
20260510220419 67 14 2.6 6.1 0.00 0.00 0.00 71 1020.3
20260510220351 66 14 3.5 6.1 0.00 0.00 0.00 71 1020.3
20260510215843 66 326 5.2 5.2 0.00 0.00 0.00 72 1020.4
20260510215345 65 0 0.0 11.3 0.00 0.00 0.00 74 1020.3
20260510215337 65 0 0.0 11.3 0.00 0.00 0.00 74 1020.3
20260510214828 64 0 0.0 11.3 0.00 0.00 0.00 73 1020.4
20260510214323 64 348 4.3 11.3 0.00 0.00 0.00 72 1020.2
20260510214311 64 343 2.6 11.3 0.00 0.00 0.00 72 1020.2
20260510213815 64 303 8.7 8.7 0.00 0.00 0.00 73 1020.2
20260510213754 64 333 4.3 8.7 0.00 0.00 0.00 73 1020.2
20260510213308 64 16 0.0 8.7 0.00 0.00 0.00 72 1020.2
20260510213237 64 347 7.0 8.7 0.00 0.00 0.00 71 1020.2
20260510212801 65 292 6.1 8.7 0.00 0.00 0.00 71 1020.3
20260510212720 65 305 7.0 8.7 0.00 0.00 0.00 71 1020.2
20260510212254 65 303 6.1 12.2 0.00 0.00 0.00 72 1020.2
20260510212203 65 303 5.2 12.2 0.00 0.00 0.00 72 1020.3
20260510211748 64 36 3.5 12.2 0.00 0.00 0.00 73 1020.0
20260510211647 64 4 3.5 12.2 0.00 0.00 0.00 74 1020.1
20260510211240 64 326 4.3 12.2 0.00 0.00 0.00 74 1020.2
20260510211129 63 326 4.3 12.2 0.00 0.00 0.00 75 1020.2
20260510210733 63 317 9.6 12.2 0.00 0.00 0.00 73 1020.2
20260510210612 63 317 9.6 12.2 0.00 0.00 0.00 74 1020.2
20260510210227 63 348 7.8 10.4 0.00 0.00 0.00 73 1020.4
20260510210055 64 348 7.0 10.4 0.00 0.00 0.00 72 1020.3
20260510205719 65 296 7.0 9.6 0.00 0.00 0.00 72 1020.4
20260510205538 65 296 7.8 9.6 0.00 0.00 0.00 72 1020.3
20260510205212 65 308 7.0 9.6 0.00 0.00 0.00 73 1020.3
20260510205021 65 308 6.1 9.6 0.00 0.00 0.00 74 1020.3
20260510204504 65 351 5.2 8.7 0.00 0.00 0.00 75 1020.4
20260510204158 64 315 4.3 8.7 0.00 0.00 0.00 76 1020.4
20260510203947 64 315 4.3 8.7 0.00 0.00 0.00 75 1020.4
20260510203430 64 333 7.0 8.7 0.00 0.00 0.00 73 1020.4
20260510203144 65 331 5.2 7.8 0.00 0.00 0.00 74 1020.2
20260510202913 65 319 5.2 7.8 0.00 0.00 0.00 75 1020.2
20260510202637 64 18 4.3 7.8 0.00 0.00 0.00 75 1020.1
20260510202130 64 329 3.5 7.8 0.00 0.00 0.00 75 1020.1
20260510201840 64 331 5.2 11.3 0.00 0.00 0.00 76 1020.2
20260510201623 64 326 4.3 11.3 0.00 0.00 0.00 76 1020.2
20260510201322 64 326 6.1 11.3 0.00 0.00 0.00 76 1020.2
20260510201117 63 338 4.3 11.3 0.00 0.00 0.00 76 1020.1
20260510200805 63 338 6.1 11.3 0.00 0.00 0.00 75 1020.1
20260510200609 63 298 7.8 11.3 0.00 0.00 0.00 75 1020.1
20260510200248 64 284 4.3 11.3 0.00 0.00 0.00 75 1020.2
20260510195731 64 18 6.1 8.7 0.00 0.00 0.00 74 1020.2
20260510195555 64 18 5.2 8.7 0.00 0.00 0.00 74 1020.2
20260510195215 65 4 7.0 8.7 0.00 0.00 0.00 73 1020.2
20260510195048 65 326 6.1 7.8 0.00 0.00 0.00 74 1020.3
20260510194657 65 14 4.3 6.1 0.00 0.00 0.00 75 1020.2
20260510194140 65 263 0.9 8.7 0.00 0.00 0.00 75 1020.2
20260510194034 65 263 0.9 8.7 0.00 0.00 0.00 76 1020.2
20260510193623 64 238 1.7 8.7 0.00 0.00 0.00 77 1020.1
20260510193107 64 324 1.7 8.7 0.00 0.00 0.00 76 1019.9
20260510193020 64 324 2.6 8.7 0.00 0.00 0.00 76 1019.9
20260510192549 64 343 6.1 7.8 0.00 0.00 0.00 74 1019.8
20260510192513 64 330 6.1 7.8 0.00 0.00 0.00 74 1019.9
20260510192032 65 341 6.1 7.8 0.00 0.00 0.00 76 1019.8
20260510192007 65 341 6.1 7.8 0.00 0.00 0.00 76 1019.8
20260510191515 64 345 1.7 6.1 0.00 0.00 0.00 76 1019.8
20260510191459 64 345 3.5 6.1 0.00 0.00 0.00 77 1019.8
20260510190958 64 329 4.3 6.1 0.00 0.00 0.00 77 1019.6
20260510190441 64 306 1.7 4.3 0.00 0.00 0.00 78 1019.6
20260510185938 63 323 5.2 7.0 0.00 0.00 0.00 78 1019.6
20260510185924 63 312 3.5 7.0 0.00 0.00 0.00 78 1019.5
20260510185431 63 295 1.7 7.0 0.00 0.00 0.00 80 1019.6
20260510185407 63 261 3.5 7.0 0.00 0.00 0.00 80 1019.6
20260510184924 62 355 4.3 7.0 0.00 0.00 0.00 78 1019.4
20260510184850 62 355 4.3 7.0 0.00 0.00 0.00 78 1019.4
20260510184417 62 264 2.6 7.0 0.00 0.00 0.00 80 1019.4
20260510184333 62 266 2.6 7.0 0.00 0.00 0.00 80 1019.4
20260510183910 61 301 3.5 7.0 0.00 0.00 0.00 81 1019.3
20260510183817 61 334 5.2 7.0 0.00 0.00 0.00 82 1019.4
20260510183403 61 296 0.9 7.0 0.00 0.00 0.00 84 1019.3
20260510183259 60 296 1.7 7.0 0.00 0.00 0.00 84 1019.3
20260510182856 59 298 2.6 7.0 0.00 0.00 0.00 85 1019.4
20260510182742 59 319 5.2 7.0 0.00 0.00 0.00 85 1019.5
20260510182225 58 333 4.3 6.1 0.00 0.00 0.00 87 1019.5
20260510181842 58 0 0.0 4.3 0.00 0.00 0.00 87 1019.6
20260510181708 58 306 1.7 4.3 0.00 0.00 0.00 87 1019.6
20260510181335 57 0 0.0 4.3 0.00 0.00 0.00 88 1019.4
20260510181151 57 326 1.7 4.3 0.00 0.00 0.00 88 1019.3
20260510180829 57 0 0.0 7.8 0.00 0.00 0.00 87 1019.4
20260510180634 57 291 2.6 7.8 0.00 0.00 0.00 87 1019.5
20260510180321 57 291 4.3 7.8 0.00 0.00 0.00 87 1019.4
20260510180117 57 30 3.5 7.8 0.00 0.00 0.00 86 1019.5
20260510175814 57 0 0.0 7.8 0.00 0.00 0.00 86 1019.6
20260510175600 57 330 4.3 7.8 0.00 0.00 0.00 85 1019.5
20260510175307 58 306 3.5 7.8 0.00 0.00 0.00 84 1019.4
20260510175043 58 357 3.5 7.0 0.00 0.00 0.00 84 1019.6
20260510174800 58 312 4.3 7.0 0.00 0.00 0.00 83 1019.5
20260510174526 59 312 6.1 8.7 0.00 0.00 0.00 83 1019.5
20260510174253 59 0 0.0 8.7 0.00 0.00 0.00 82 1019.5
20260510174009 60 319 7.0 8.7 0.00 0.00 0.00 82 1019.4
20260510173746 60 320 7.8 8.7 0.00 0.00 0.00 83 1019.3
20260510173452 60 331 1.7 8.7 0.00 0.00 0.00 83 1019.5
20260510173239 60 340 4.3 8.7 0.00 0.00 0.00 83 1019.6
20260510172935 59 340 6.1 8.7 0.00 0.00 0.00 83 1019.6
20260510172732 59 320 3.5 7.0 0.00 0.00 0.00 83 1019.4
20260510172418 60 313 6.1 7.0 0.00 0.00 0.00 84 1019.3
20260510172225 59 348 5.2 7.8 0.00 0.00 0.00 85 1019.3
20260510171901 59 337 1.7 7.8 0.00 0.00 0.00 85 1019.2
20260510171718 59 327 2.6 7.8 0.00 0.00 0.00 85 1019.1
20260510171344 59 330 4.3 7.8 0.00 0.00 0.00 85 1019.1
20260510171211 59 357 6.1 7.8 0.00 0.00 0.00 85 1019.1
20260510170827 59 320 5.2 7.8 0.00 0.00 0.00 85 1019.0
20260510170310 59 0 0.0 4.3 0.00 0.00 0.00 85 1019.0
20260510170157 59 327 1.7 3.5 0.00 0.00 0.00 85 1019.1
20260510165753 59 0 2.6 7.8 0.00 0.00 0.00 85 1019.1
20260510165650 59 0 4.3 7.8 0.00 0.00 0.00 85 1019.1
20260510165236 59 334 2.6 7.8 0.00 0.00 0.00 86 1019.0
20260510165143 59 334 2.6 7.8 0.00 0.00 0.00 86 1019.0
20260510164719 59 334 3.5 7.8 0.00 0.00 0.00 86 1019.1
20260510164637 59 334 7.0 7.8 0.00 0.00 0.00 86 1019.1
20260510164202 59 310 7.0 7.8 0.00 0.00 0.00 87 1019.1
20260510164129 59 310 6.1 7.8 0.00 0.00 0.00 87 1019.1
20260510163645 58 344 2.6 6.1 0.00 0.00 0.00 88 1018.9
20260510163622 58 344 4.3 6.1 0.00 0.00 0.00 88 1018.9
20260510163128 57 313 2.6 6.1 0.00 0.00 0.00 88 1018.9
20260510163116 57 313 4.3 6.1 0.00 0.00 0.00 88 1018.9
20260510162608 57 0 0.0 0.0 0.00 0.00 0.00 88 1018.9
20260510162102 57 336 4.3 6.1 0.00 0.00 0.00 88 1018.8
20260510162054 57 336 2.6 6.1 0.00 0.00 0.00 88 1018.8
20260510161554 57 285 1.7 6.1 0.00 0.00 0.00 88 1018.7
20260510161537 57 285 1.7 6.1 0.00 0.00 0.00 88 1018.7
20260510161047 58 315 1.7 6.1 0.00 0.00 0.00 89 1018.5
20260510161021 58 315 1.7 6.1 0.00 0.00 0.00 89 1018.6
20260510160540 58 333 0.9 3.5 0.00 0.00 0.00 89 1018.7
20260510160503 58 0 0.0 3.5 0.00 0.00 0.00 89 1018.6
20260510160033 58 0 0.0 5.2 0.00 0.00 0.00 90 1018.5
20260510155946 57 0 0.0 5.2 0.00 0.00 0.00 90 1018.6
20260510155526 57 0 0.0 5.2 0.00 0.00 0.00 90 1018.6
20260510155429 57 0 0.0 5.2 0.00 0.00 0.00 90 1018.6
20260510155019 57 354 0.9 5.2 0.00 0.00 0.00 90 1018.6
20260510154912 57 0 0.0 5.2 0.00 0.00 0.00 90 1018.5
20260510154512 57 341 2.6 5.2 0.00 0.00 0.00 91 1018.5
20260510154355 57 341 3.5 5.2 0.00 0.00 0.00 91 1018.5
20260510153838 56 319 3.5 5.2 0.00 0.00 0.00 91 1018.4
20260510153458 57 0 0.0 3.5 0.00 0.00 0.00 92 1018.3
20260510153321 57 0 0.0 3.5 0.00 0.00 0.00 92 1018.3
20260510152951 56 0 0.0 3.5 0.00 0.00 0.00 92 1018.3
20260510152804 56 0 0.0 3.5 0.00 0.00 0.00 92 1018.4
20260510152444 56 323 1.7 3.5 0.00 0.00 0.00 93 1018.4
20260510152247 56 0 0.0 0.0 0.00 0.00 0.00 93 1018.4
20260510151937 56 0 0.0 3.5 0.00 0.00 0.00 93 1018.4
20260510151730 55 357 0.9 3.5 0.00 0.00 0.00 93 1018.3
20260510151430 55 0 0.0 3.5 0.00 0.00 0.00 94 1018.3
20260510151213 55 322 0.9 3.5 0.00 0.00 0.00 94 1018.2
20260510150923 55 322 0.9 3.5 0.00 0.00 0.00 94 1018.2
20260510150656 55 320 1.7 3.5 0.00 0.00 0.00 94 1018.3
20260510150416 55 320 1.7 3.5 0.00 0.00 0.00 94 1018.3
20260510150139 54 0 0.0 0.0 0.00 0.00 0.00 95 1018.2
20260510145909 54 0 0.0 0.0 0.00 0.00 0.00 95 1018.2
20260510145622 54 0 0.0 0.0 0.00 0.00 0.00 95 1018.1
20260510145402 54 0 0.0 0.0 0.00 0.00 0.00 95 1018.0
20260510145105 54 0 0.0 0.0 0.00 0.00 0.00 95 1018.0
20260510144855 54 0 0.0 4.3 0.00 0.00 0.00 95 1017.9
20260510144550 54 0 0.0 4.3 0.00 0.00 0.00 95 1018.0
20260510144348 54 0 0.0 4.3 0.00 0.00 0.00 95 1018.0
20260510143841 54 0 0.0 4.3 0.00 0.00 0.00 95 1018.0
20260510143514 54 0 0.0 4.3 0.00 0.00 0.00 95 1018.0
20260510143334 54 0 0.0 4.3 0.00 0.00 0.00 95 1018.0
20260510142957 54 323 0.9 2.6 0.00 0.00 0.00 95 1017.9
20260510142827 54 0 0.0 0.0 0.00 0.00 0.00 95 1017.9
20260510142440 54 0 0.0 0.0 0.00 0.00 0.00 95 1017.9
20260510142323 54 0 0.0 0.0 0.00 0.00 0.00 95 1017.9
20260510141923 54 0 0.0 0.0 0.00 0.00 0.00 95 1017.8
20260510141813 54 0 0.0 0.0 0.00 0.00 0.00 95 1017.8
20260510141406 54 0 0.0 0.0 0.00 0.00 0.00 96 1017.8
20260510141306 54 0 0.0 0.0 0.00 0.00 0.00 96 1017.8
20260510140849 53 0 0.0 4.3 0.00 0.00 0.00 96 1017.8
20260510140759 53 0 0.0 4.3 0.00 0.00 0.00 96 1017.8
20260510140332 53 0 0.0 4.3 0.00 0.00 0.00 96 1017.7
20260510140252 53 0 0.0 4.3 0.00 0.00 0.00 96 1017.7
20260510135815 53 0 0.0 4.3 0.00 0.00 0.00 96 1017.6
20260510135745 53 322 1.7 4.3 0.00 0.00 0.00 96 1017.6
20260510135258 53 0 0.0 2.6 0.00 0.00 0.00 96 1017.6
20260510135238 53 0 0.0 2.6 0.00 0.00 0.00 96 1017.6
20260510134741 53 327 0.9 2.6 0.00 0.00 0.00 96 1017.5
20260510134731 53 327 0.9 2.6 0.00 0.00 0.00 96 1017.5
20260510134224 53 0 0.0 0.0 0.00 0.00 0.00 94 1017.6
20260510133717 53 0 0.0 0.0 0.00 0.00 0.00 95 1017.4
20260510133707 53 0 0.0 0.0 0.00 0.00 0.00 95 1017.4
20260510133210 53 334 2.6 5.2 0.00 0.00 0.00 95 1017.4
20260510132703 53 0 0.0 5.2 0.00 0.00 0.00 95 1017.4
20260510132633 53 0 0.0 5.2 0.00 0.00 0.00 95 1017.4
20260510132156 53 309 2.6 5.2 0.00 0.00 0.00 95 1017.4
20260510132116 53 309 2.6 5.2 0.00 0.00 0.00 95 1017.4
20260510131649 53 303 2.6 5.2 0.00 0.00 0.00 95 1017.5
20260510131559 53 303 2.6 5.2 0.00 0.00 0.00 95 1017.4
20260510131142 53 0 0.0 0.0 0.00 0.00 0.00 95 1017.2
20260510131042 53 0 0.0 0.0 0.00 0.00 0.00 95 1017.2
20260510130635 53 0 0.0 0.0 0.00 0.00 0.00 95 1017.0
20260510130525 53 0 0.0 0.0 0.00 0.00 0.00 95 1016.9
20260510130128 53 0 0.0 0.0 0.00 0.00 0.00 95 1016.9
20260510130008 53 0 0.0 0.0 0.00 0.00 0.00 94 1016.9
20260510125621 53 0 0.0 0.0 0.00 0.00 0.00 94 1017.0
20260510125451 53 0 0.0 0.0 0.00 0.00 0.00 94 1017.1
20260510125114 53 0 0.0 0.0 0.00 0.00 0.00 94 1017.0
20260510124934 53 0 0.0 0.0 0.00 0.00 0.00 94 1017.0
20260510124607 53 0 0.0 0.0 0.00 0.00 0.00 94 1016.9
20260510124417 53 0 0.0 0.0 0.00 0.00 0.00 94 1016.9
20260510124100 53 0 0.0 0.0 0.00 0.00 0.00 94 1017.1
20260510123900 53 0 0.0 0.0 0.00 0.00 0.00 94 1017.2
20260510123553 53 0 0.0 0.0 0.00 0.00 0.00 94 1017.4
20260510123343 53 0 0.0 0.0 0.00 0.00 0.00 94 1017.5
20260510123046 53 0 0.0 0.0 0.00 0.00 0.00 94 1017.5
20260510122826 53 0 0.0 0.0 0.00 0.00 0.00 94 1017.4
20260510122540 53 308 2.6 5.2 0.00 0.00 0.00 94 1017.4
20260510122309 53 0 0.0 5.2 0.00 0.00 0.00 94 1017.3
20260510122032 53 29 1.7 5.2 0.00 0.00 0.00 93 1017.2
20260510121752 53 0 0.0 5.2 0.00 0.00 0.00 93 1017.1
20260510121525 53 0 0.0 5.2 0.00 0.00 0.00 93 1017.3
20260510121235 53 35 2.6 5.2 0.00 0.00 0.00 93 1017.1
20260510120718 53 347 1.7 4.3 0.00 0.00 0.00 93 1017.1
20260510120511 53 347 1.7 5.2 0.00 0.00 0.00 93 1017.2
20260510120201 53 7 1.7 5.2 0.00 0.00 0.00 93 1017.1
20260510120004 53 7 1.7 5.2 0.00 0.00 0.00 93 1017.1
20260510115644 53 338 1.7 5.2 0.00 0.00 0.00 93 1017.2
20260510115457 53 338 1.7 5.2 0.00 0.00 0.00 93 1017.3
20260510115127 53 298 2.6 5.2 0.00 0.00 0.00 93 1017.4
20260510114950 53 298 2.6 5.2 0.00 0.00 0.00 93 1017.3
20260510114610 53 0 0.0 0.0 0.00 0.00 0.00 93 1017.2
20260510114443 53 0 0.0 0.0 0.00 0.00 0.00 93 1017.3
20260510114053 53 0 0.0 0.0 0.00 0.00 0.00 93 1017.5
20260510113937 53 0 0.0 0.0 0.00 0.00 0.00 93 1017.4
20260510113536 53 0 0.0 0.0 0.00 0.00 0.00 92 1017.4
20260510113429 53 0 0.0 0.0 0.00 0.00 0.00 92 1017.5
20260510113019 53 0 0.0 6.1 0.00 0.00 0.00 92 1017.5
20260510112922 53 0 0.0 6.1 0.00 0.00 0.00 92 1017.5
20260510112502 53 0 1.7 6.1 0.00 0.00 0.00 92 1017.3
20260510112415 53 0 1.7 6.1 0.00 0.00 0.00 92 1017.3
20260510111945 53 0 0.0 6.1 0.00 0.00 0.00 93 1017.2
20260510111908 54 0 0.0 6.1 0.00 0.00 0.00 93 1017.2
20260510111428 54 18 0.9 6.1 0.00 0.00 0.00 93 1017.3
20260510111401 54 18 0.9 6.1 0.00 0.00 0.00 93 1017.3
20260510110911 53 0 0.0 6.1 0.00 0.00 0.00 93 1017.3
20260510110854 54 0 0.0 6.1 0.00 0.00 0.00 93 1017.3
20260510110347 54 8 4.3 6.1 0.00 0.00 0.00 93 1017.4
20260510105837 53 0 0.0 6.1 0.00 0.00 0.00 93 1017.4
20260510105333 54 0 0.0 5.2 0.00 0.00 0.00 93 1017.4
20260510105321 54 0 0.0 5.2 0.00 0.00 0.00 93 1017.4
20260510104826 53 0 0.0 5.2 0.00 0.00 0.00 94 1017.4
20260510104802 54 0 0.0 5.2 0.00 0.00 0.00 94 1017.4
20260510104246 53 15 0.9 5.2 0.00 0.00 0.00 94 1017.3
20260510103812 53 0 0.0 5.2 0.00 0.00 0.00 94 1017.3
20260510103728 53 350 1.7 5.2 0.00 0.00 0.00 94 1017.3
20260510103305 53 0 0.0 5.2 0.00 0.00 0.00 94 1017.3
20260510103212 53 26 1.7 3.5 0.00 0.00 0.00 95 1017.2
20260510102758 53 305 2.6 6.1 0.00 0.00 0.00 95 1017.3
20260510102654 53 305 2.6 6.1 0.00 0.00 0.00 95 1017.4
20260510102251 53 319 5.2 6.1 0.00 0.00 0.00 95 1017.4
20260510102138 53 310 1.7 6.1 0.00 0.00 0.00 95 1017.5
20260510101744 53 14 2.6 6.1 0.00 0.00 0.00 95 1017.4
20260510101620 54 14 3.5 6.1 0.00 0.00 0.00 95 1017.5
20260510101237 53 315 2.6 6.1 0.00 0.00 0.00 95 1017.4
20260510101103 54 315 6.1 6.1 0.00 0.00 0.00 95 1017.4
20260510100730 53 294 2.6 5.2 0.00 0.00 0.00 95 1017.4
20260510100547 53 294 2.6 5.2 0.00 0.00 0.00 95 1017.1
20260510100223 53 306 1.7 3.5 0.00 0.00 0.00 95 1016.8
20260510100030 53 306 1.7 6.1 0.00 0.00 0.00 95 1016.9
20260510095716 53 14 0.9 6.1 0.00 0.00 0.00 95 1016.9
20260510095512 54 14 0.9 6.1 0.00 0.00 0.00 95 1016.9
20260510095209 54 341 3.5 6.1 0.00 0.00 0.00 95 1016.9
20260510094956 54 341 2.6 6.1 0.00 0.00 0.00 95 1016.8
20260510094702 54 46 1.7 6.1 0.00 0.00 0.00 95 1016.9
20260510094438 54 46 3.5 6.1 0.00 0.00 0.00 95 1016.9
20260510094156 54 21 5.2 5.2 0.00 0.00 0.00 95 1016.9
20260510093921 54 0 0.0 4.3 0.00 0.00 0.00 95 1017.2
20260510093648 54 0 0.0 4.3 0.00 0.00 0.00 95 1017.2
20260510093404 54 0 0.0 4.3 0.00 0.00 0.00 95 1017.2
20260510093141 54 352 1.7 4.3 0.00 0.00 0.00 95 1017.2
20260510092847 54 341 2.6 5.2 0.00 0.00 0.00 95 1017.3
20260510092634 54 288 2.6 5.2 0.00 0.00 0.00 95 1017.3
20260510092330 54 288 4.3 5.2 0.00 0.00 0.00 95 1017.2
20260510092128 54 343 2.6 5.2 0.00 0.00 0.00 95 1017.1
20260510091813 54 0 0.0 5.2 0.00 0.00 0.00 95 1017.0
20260510091619 54 5 5.2 5.2 0.00 0.00 0.00 95 1016.9
20260510091256 54 26 2.6 5.2 0.00 0.00 0.00 95 1017.0
20260510091112 54 302 1.7 4.3 0.00 0.00 0.00 95 1017.0
20260510090739 54 331 1.7 4.3 0.00 0.00 0.00 95 1017.0
20260510090605 54 331 1.7 4.3 0.00 0.00 0.00 95 1016.9
20260510090222 54 324 1.7 4.3 0.00 0.00 0.00 95 1016.9
20260510090058 54 324 1.7 4.3 0.00 0.00 0.00 95 1017.0
20260510085705 54 4 4.3 4.3 0.00 0.00 0.00 95 1016.9
20260510085551 54 0 0.0 0.0 0.00 0.00 0.00 95 1017.0
20260510085148 54 12 1.7 6.1 0.00 0.00 0.00 95 1016.9
20260510085045 54 12 1.7 6.1 0.00 0.00 0.00 95 1016.9
20260510084631 54 329 1.7 6.1 0.00 0.00 0.00 95 1016.9
20260510084537 54 329 1.7 6.1 0.00 0.00 0.00 95 1017.0
20260510084114 54 336 0.9 6.1 0.00 0.00 0.00 95 1016.9
20260510084031 54 336 0.9 6.1 0.00 0.00 0.00 95 1016.9
20260510083557 54 8 5.2 6.1 0.00 0.00 0.00 95 1016.8
20260510083523 54 337 1.7 6.1 0.00 0.00 0.00 95 1017.0
20260510083041 54 25 2.6 6.1 0.00 0.00 0.00 95 1016.9
20260510082524 54 64 1.7 4.3 0.00 0.00 0.00 95 1016.8
20260510082509 54 64 4.3 4.3 0.00 0.00 0.00 95 1016.8
20260510082007 54 324 1.7 7.8 0.00 0.00 0.00 95 1017.0
20260510082002 54 324 1.7 7.8 0.00 0.00 0.00 95 1017.0
20260510081455 54 324 4.3 7.8 0.00 0.00 0.00 95 1016.9
20260510081449 54 16 0.9 7.8 0.00 0.00 0.00 95 1016.9
20260510080948 54 51 1.7 7.8 0.00 0.00 0.00 95 1016.9
20260510080932 54 51 1.7 7.8 0.00 0.00 0.00 95 1016.9
20260510080441 54 25 1.7 7.8 0.00 0.00 0.00 95 1016.9
20260510080416 54 25 1.7 7.8 0.00 0.00 0.00 95 1016.9
20260510075934 54 308 1.7 3.5 0.00 0.00 0.00 95 1016.8
20260510075858 54 308 1.7 5.2 0.00 0.00 0.00 95 1016.8
20260510075427 54 309 2.6 5.2 0.00 0.00 0.00 95 1016.8
20260510075341 54 0 0.0 5.2 0.00 0.00 0.00 95 1016.9
20260510074920 54 288 1.7 5.2 0.00 0.00 0.00 95 1017.0
20260510074824 54 288 3.5 5.2 0.00 0.00 0.00 95 1016.9
20260510074413 54 337 1.7 5.2 0.00 0.00 0.00 94 1016.8
20260510074307 54 0 0.0 5.2 0.00 0.00 0.00 94 1016.8
20260510073908 54 0 0.0 0.0 0.00 0.00 0.00 94 1016.7
20260510073750 54 0 0.0 0.0 0.00 0.00 0.00 94 1016.8
20260510073359 54 0 0.0 0.0 0.00 0.00 0.00 95 1016.8
20260510073233 54 42 0.9 8.7 0.00 0.00 0.00 95 1016.8
20260510072852 54 42 0.9 8.7 0.00 0.00 0.00 94 1016.7
20260510072716 54 42 2.6 8.7 0.00 0.00 0.00 94 1016.7
20260510072345 54 327 4.3 8.7 0.00 0.00 0.00 94 1016.7
20260510071838 54 0 0.0 8.7 0.00 0.00 0.00 94 1016.7
20260510071642 54 14 4.3 8.7 0.00 0.00 0.00 94 1016.7
20260510071332 54 56 4.3 7.0 0.00 0.00 0.00 94 1016.7
20260510071125 54 0 0.0 4.3 0.00 0.00 0.00 94 1016.7
20260510070824 54 0 0.0 4.3 0.00 0.00 0.00 94 1016.7
20260510070608 54 7 1.7 7.0 0.00 0.00 0.00 94 1016.7
20260510070318 54 0 0.0 7.0 0.00 0.00 0.00 95 1016.7
20260510070051 54 0 0.0 7.0 0.00 0.00 0.00 95 1016.6
20260510065810 54 0 0.0 7.0 0.00 0.00 0.00 95 1016.7
20260510065534 54 7 2.6 7.0 0.00 0.00 0.00 95 1016.7
20260510065306 54 0 0.0 7.0 0.00 0.00 0.00 94 1016.6
20260510064756 54 0 0.0 7.0 0.00 0.00 0.00 95 1016.6
20260510064500 54 0 0.0 4.3 0.00 0.00 0.00 95 1016.7
20260510064249 54 15 1.7 4.3 0.00 0.00 0.00 95 1016.7
20260510063943 54 0 0.0 0.0 0.00 0.00 0.00 95 1016.9
20260510063742 54 2 0.9 6.1 0.00 0.00 0.00 95 1016.9
20260510063426 54 0 0.0 6.1 0.00 0.00 0.00 95 1016.9
20260510063235 54 23 2.6 6.1 0.00 0.00 0.00 95 1016.8
20260510062910 54 23 5.2 6.1 0.00 0.00 0.00 95 1016.9
20260510062728 54 18 2.6 6.1 0.00 0.00 0.00 95 1016.8
20260510062355 54 18 2.6 6.1 0.00 0.00 0.00 95 1016.8
20260510062221 54 37 4.3 6.1 0.00 0.00 0.00 95 1016.8
20260510061835 54 1 0.9 1.7 0.00 0.00 0.00 95 1016.8
20260510061715 54 330 1.7 7.8 0.00 0.00 0.00 95 1016.7
20260510061320 54 0 0.0 7.8 0.00 0.00 0.00 95 1016.8
20260510061208 54 14 3.5 7.8 0.00 0.00 0.00 95 1016.8
20260510060801 54 0 0.0 7.8 0.00 0.00 0.00 95 1016.8
20260510060700 54 11 4.3 7.8 0.00 0.00 0.00 95 1016.8
20260510060245 54 11 3.5 7.8 0.00 0.00 0.00 95 1016.7
20260510060155 54 11 3.5 7.8 0.00 0.00 0.00 95 1016.7
20260510055727 54 29 2.6 6.1 0.00 0.00 0.00 95 1016.7
20260510055646 54 29 2.6 6.1 0.00 0.00 0.00 95 1016.7
20260510055211 54 43 1.7 6.1 0.00 0.00 0.00 95 1016.7
20260510055139 54 43 1.7 6.1 0.00 0.00 0.00 95 1016.7
20260510054653 54 18 2.6 6.1 0.00 0.00 0.00 95 1016.8
20260510054633 54 18 2.6 6.1 0.00 0.00 0.00 95 1016.8
20260510054125 54 4 1.7 7.8 0.00 0.00 0.00 95 1016.8
20260510053618 54 74 5.2 7.8 0.00 0.00 0.00 95 1016.8
20260510053103 54 2 3.5 7.8 0.00 0.00 0.00 95 1016.8
20260510052604 54 324 6.1 7.8 0.00 0.00 0.00 95 1016.7
20260510052057 55 32 6.1 7.8 0.00 0.00 0.00 95 1016.6
20260510052029 54 32 3.5 7.8 0.00 0.00 0.00 95 1016.6
20260510051550 54 329 1.7 8.7 0.00 0.00 0.00 95 1016.6
20260510051511 54 329 2.6 8.7 0.00 0.00 0.00 95 1016.7
20260510051044 54 14 2.6 8.7 0.00 0.00 0.00 95 1016.7
20260510050954 55 14 1.7 8.7 0.00 0.00 0.00 95 1016.7
20260510050536 54 308 3.5 8.7 0.00 0.00 0.00 95 1016.6
20260510050437 54 308 6.1 8.7 0.00 0.00 0.00 95 1016.6
20260510050029 54 26 6.1 8.7 0.00 0.00 0.00 95 1016.7
20260510045920 54 26 4.3 8.7 0.00 0.00 0.00 95 1016.7
20260510045523 54 285 6.1 8.7 0.00 0.00 0.00 95 1016.7
20260510045403 54 25 4.3 8.7 0.00 0.00 0.00 95 1016.6
20260510044846 55 12 2.6 5.2 0.00 0.00 0.00 95 1016.4
20260510044508 55 18 7.0 8.7 0.00 0.00 0.00 95 1016.3
20260510044329 55 18 6.1 8.7 0.00 0.00 0.00 95 1016.4
20260510044001 55 86 5.2 8.7 0.00 0.00 0.00 95 1016.3
20260510043812 55 357 0.9 8.7 0.00 0.00 0.00 95 1016.3
20260510043454 55 11 3.5 8.7 0.00 0.00 0.00 95 1016.3
20260510043255 55 28 4.3 8.7 0.00 0.00 0.00 95 1016.2
20260510042947 55 14 7.0 8.7 0.00 0.00 0.00 95 1016.2
20260510042739 55 319 4.3 8.7 0.00 0.00 0.00 95 1016.1
20260510042440 55 319 4.3 9.6 0.00 0.00 0.00 95 1016.2
20260510042221 55 316 4.3 9.6 0.00 0.00 0.00 95 1016.0
20260510041933 55 316 4.3 9.6 0.00 0.00 0.00 95 1016.0
20260510041426 55 21 4.3 9.6 0.00 0.00 0.00 95 1016.1
20260510041147 55 33 7.0 9.6 0.00 0.00 0.00 95 1016.1
20260510040919 55 326 3.5 9.6 0.00 0.00 0.00 95 1016.0
20260510040630 55 316 7.0 9.6 0.00 0.00 0.00 95 1016.0
20260510040412 55 338 1.7 1.7 0.00 0.00 0.00 95 1016.1
20260510040113 55 11 5.2 11.3 0.00 0.00 0.00 94 1015.9
20260510035907 55 326 4.3 11.3 0.00 0.00 0.00 94 1015.9
20260510035556 55 333 4.3 11.3 0.00 0.00 0.00 94 1015.8
20260510035358 55 334 1.7 11.3 0.00 0.00 0.00 94 1015.8
20260510035039 55 16 5.2 11.3 0.00 0.00 0.00 94 1015.7
20260510034851 55 357 6.1 11.3 0.00 0.00 0.00 94 1015.6
20260510034522 55 5 7.8 11.3 0.00 0.00 0.00 94 1015.6
20260510034344 55 310 5.2 7.0 0.00 0.00 0.00 94 1015.5
20260510034005 55 4 2.6 8.7 0.00 0.00 0.00 94 1015.5
20260510033837 55 4 5.2 8.7 0.00 0.00 0.00 93 1015.5
20260510033448 55 316 5.2 8.7 0.00 0.00 0.00 93 1015.5
20260510033330 55 316 1.7 8.7 0.00 0.00 0.00 93 1015.5
20260510032931 56 341 4.3 8.7 0.00 0.00 0.00 93 1015.5
20260510032823 56 319 3.5 8.7 0.00 0.00 0.00 93 1015.5
20260510032414 56 14 7.0 8.7 0.00 0.00 0.00 93 1015.4
20260510032316 56 16 0.9 8.7 0.00 0.00 0.00 93 1015.3
20260510031857 56 357 0.9 8.7 0.00 0.00 0.00 92 1015.2
20260510031809 56 0 0.0 8.7 0.00 0.00 0.00 92 1015.2
20260510031340 56 0 0.0 8.7 0.00 0.00 0.00 92 1015.2
20260510031302 56 0 0.0 8.7 0.00 0.00 0.00 92 1015.2
20260510030823 56 16 4.3 9.6 0.00 0.00 0.00 92 1015.2
20260510030755 56 348 7.0 9.6 0.00 0.00 0.00 92 1015.2
20260510030306 56 0 0.0 9.6 0.00 0.00 0.00 92 1015.2
20260510030248 56 348 5.2 9.6 0.00 0.00 0.00 92 1015.2
20260510025741 56 8 2.6 9.6 0.00 0.00 0.00 92 1015.1
20260510024727 57 19 2.6 8.7 0.00 0.00 0.00 91 1015.3
20260510024715 57 19 4.3 8.7 0.00 0.00 0.00 91 1015.3
20260510024220 57 352 4.3 8.7 0.00 0.00 0.00 90 1015.2
20260510024158 57 352 4.3 8.7 0.00 0.00 0.00 90 1015.2
20260510023206 57 291 5.2 8.7 0.00 0.00 0.00 90 1015.2
20260510023124 57 291 3.5 8.7 0.00 0.00 0.00 90 1015.2
20260510022700 57 330 3.5 8.7 0.00 0.00 0.00 90 1015.3
20260510022607 57 330 6.1 8.7 0.00 0.00 0.00 89 1015.2
20260510022152 57 352 4.3 8.7 0.00 0.00 0.00 89 1015.2
20260510022051 57 310 3.5 8.7 0.00 0.00 0.00 89 1015.2
20260510021645 57 29 8.7 8.7 0.00 0.00 0.00 89 1015.1
20260510021534 58 280 4.3 8.7 0.00 0.00 0.00 89 1015.2
20260510021138 58 21 6.1 11.3 0.00 0.00 0.00 88 1015.2
20260510020631 58 345 4.3 11.3 0.00 0.00 0.00 88 1015.2
20260510020459 58 331 5.2 11.3 0.00 0.00 0.00 88 1015.2
20260510020124 58 46 3.5 11.3 0.00 0.00 0.00 87 1015.1
20260510015942 58 340 6.1 11.3 0.00 0.00 0.00 87 1015.1
20260510015617 58 333 7.8 11.3 0.00 0.00 0.00 87 1015.2
20260510015425 58 333 9.6 11.3 0.00 0.00 0.00 87 1015.2
20260510015110 58 337 7.0 10.4 0.00 0.00 0.00 86 1015.3
20260510014908 58 322 6.1 10.4 0.00 0.00 0.00 86 1015.3
20260510014603 59 313 7.0 10.4 0.00 0.00 0.00 85 1015.2
20260510014353 59 285 4.3 10.4 0.00 0.00 0.00 85 1015.3
20260510014056 59 324 6.1 8.7 0.00 0.00 0.00 84 1015.3
20260510013834 59 324 7.0 8.7 0.00 0.00 0.00 84 1015.3
20260510013549 59 357 7.0 7.0 0.00 0.00 0.00 83 1015.3
20260510013316 60 340 4.3 9.6 0.00 0.00 0.00 83 1015.3
20260510013042 60 306 6.1 9.6 0.00 0.00 0.00 83 1015.2
20260510012800 60 350 1.7 9.6 0.00 0.00 0.00 82 1015.2
20260510012535 60 326 4.3 9.6 0.00 0.00 0.00 82 1015.3
20260510012243 60 341 6.1 9.6 0.00 0.00 0.00 81 1015.3
20260510012029 60 341 4.3 9.6 0.00 0.00 0.00 80 1015.3
20260510011727 61 315 5.2 9.6 0.00 0.00 0.00 79 1015.3
20260510011521 61 347 7.0 8.7 0.00 0.00 0.00 78 1015.4
20260510011209 61 336 3.5 8.7 0.00 0.00 0.00 78 1015.4
20260510011014 61 336 6.1 8.7 0.00 0.00 0.00 78 1015.4
20260510010653 62 324 6.1 8.7 0.00 0.00 0.00 77 1015.4
20260510010507 62 324 6.1 8.7 0.00 0.00 0.00 77 1015.4
20260510010135 62 326 5.2 8.7 0.00 0.00 0.00 77 1015.4
20260510010000 62 15 3.5 13.9 0.00 0.00 0.00 76 1015.4
20260510005618 62 329 4.3 13.9 0.00 0.00 0.00 76 1015.4
20260510005453 62 329 5.2 13.9 0.00 0.00 0.00 75 1015.5
20260510005101 62 334 6.1 13.9 0.00 0.00 0.00 74 1015.4
20260510004946 63 334 6.1 13.9 0.00 0.00 0.00 73 1015.4
20260510004439 63 320 6.1 13.9 0.00 0.00 0.00 72 1015.4
20260510003932 64 5 7.0 11.3 0.00 0.00 0.00 71 1015.4
20260510003510 64 310 7.8 11.3 0.00 0.00 0.00 74 1015.4
20260510003425 64 16 5.2 11.3 0.00 0.00 0.00 74 1015.4
20260510002953 63 42 7.0 8.7 0.00 0.00 0.00 74 1015.4
20260510002436 64 9 7.0 12.2 0.00 0.00 0.00 74 1015.4
20260510002411 64 9 6.1 12.2 0.00 0.00 0.00 74 1015.4
20260510001919 64 336 6.1 12.2 0.00 0.00 0.00 74 1015.4
20260510001904 64 336 7.0 12.2 0.00 0.00 0.00 74 1015.4
20260510001357 64 18 4.3 12.2 0.00 0.00 0.00 74 1015.4
20260510000845 64 274 4.3 8.7 0.00 0.00 0.00 74 1015.5
20260510000343 64 39 4.3 8.7 0.00 0.00 0.00 74 1015.5
20260510000328 64 39 5.2 8.7 0.00 0.00 0.00 74 1015.5
20260509235836 65 40 7.0 11.3 0.00 0.00 0.00 75 1015.6
20260509235811 65 40 7.0 11.3 0.00 0.00 0.00 75 1015.6
20260509235329 65 14 5.2 11.3 0.00 0.00 0.00 77 1015.6
20260509235254 64 357 4.3 11.3 0.00 0.00 0.00 77 1015.6
20260509234822 64 1 4.3 11.3 0.00 0.00 0.00 77 1015.4
20260509234737 64 322 7.0 11.3 0.00 0.00 0.00 78 1015.5
20260509233809 64 312 7.0 11.3 0.00 0.00 0.00 76 1015.5
20260509233703 63 322 7.0 11.3 0.00 0.00 0.00 76 1015.6
20260509233301 64 8 2.6 11.3 0.00 0.00 0.00 75 1015.5
20260509233146 64 16 6.1 11.3 0.00 0.00 0.00 76 1015.6
20260509232754 64 291 7.8 11.3 0.00 0.00 0.00 75 1015.6
20260509232629 64 291 9.6 11.3 0.00 0.00 0.00 75 1015.7
20260509232247 64 0 8.7 11.3 0.00 0.00 0.00 75 1015.7
20260509232112 64 22 5.2 11.3 0.00 0.00 0.00 74 1015.8
20260509231555 64 336 7.0 11.3 0.00 0.00 0.00 73 1015.7
20260509231233 65 308 4.3 9.6 0.00 0.00 0.00 73 1015.7
20260509231038 65 326 7.0 12.2 0.00 0.00 0.00 73 1015.7
20260509230726 64 301 5.2 12.2 0.00 0.00 0.00 74 1015.8
20260509230521 64 301 5.2 12.2 0.00 0.00 0.00 74 1015.8
20260509230219 64 306 6.1 12.2 0.00 0.00 0.00 74 1015.8
20260509230004 64 306 7.0 12.2 0.00 0.00 0.00 74 1015.9
20260509225712 64 310 7.0 12.2 0.00 0.00 0.00 72 1016.0
20260509225447 65 310 7.0 12.2 0.00 0.00 0.00 72 1016.1
20260509225205 65 309 5.2 9.6 0.00 0.00 0.00 73 1016.0
20260509224930 65 316 6.1 9.6 0.00 0.00 0.00 73 1015.8
20260509224658 65 338 7.0 9.6 0.00 0.00 0.00 72 1015.8
20260509224413 65 338 7.8 9.6 0.00 0.00 0.00 71 1015.8
20260509224151 65 313 8.7 11.3 0.00 0.00 0.00 72 1015.9
20260509223856 66 315 7.0 11.3 0.00 0.00 0.00 72 1015.9
20260509223644 66 306 6.1 11.3 0.00 0.00 0.00 71 1015.8